Location: Gisborne
(38.6530°S, 178.0040°E)
Time: 18:32:10
(UTC+13:00)

Cosmos 1707 Rocket - Pass Details

Date: 24 January 2019
Orbit: 604 x 633 km, 82.5° (Epoch: 22 February)

Event Time Altitude Azimuth Distance (km) Brightness Sun altitude
Exits shadow 22:55:33 73° 350° (N) 644 3.4 -23.0°
Maximum altitude 22:55:58 89° 274° (W) 619 3.4 -23.0°
Drops below altitude 10° 23:00:23 10° 173° (S) 1,988 6.7 -23.5°
Sets 23:02:37 0° 172° (S) 2,903 7.7 -23.8°
